GBSZO EGMT-EGMA

Flight info

Callsign GBSZO
Flight time 0h 35m
Altitude 2200
Route WEST HANNINGFIELD HAVERHILL DUXFORD
Aircraft C152/L-SFG/G

Departure

Time 2026-04-23 17:54
Airport Thurrock Airfield (EGMT)

Arrival

Time 2026-04-23 18:30
Airport Fowlmere Airfield (EGMA)
Time Latitude Longitude Altitude Speed Heading
2026-04-23 17:44 51.53612 0.36495 25 ft 0 kts 258°
2026-04-23 17:47 51.53614 0.36474 27 ft 8 kts 309°
2026-04-23 17:47 51.53639 0.36479 23 ft 0 kts 70°
2026-04-23 17:47 51.53640 0.36550 24 ft 9 kts 83°
2026-04-23 17:48 51.53657 0.36638 23 ft 8 kts 68°
2026-04-23 17:48 51.53665 0.36667 25 ft 1 kts 68°
2026-04-23 17:48 51.53682 0.36710 25 ft 6 kts 73°
2026-04-23 17:48 51.53696 0.36778 24 ft 8 kts 70°
2026-04-23 17:49 51.53717 0.36882 25 ft 12 kts 71°
2026-04-23 17:49 51.53742 0.36998 23 ft 9 kts 72°
2026-04-23 17:49 51.53748 0.37033 23 ft 0 kts 76°
2026-04-23 17:50 51.53758 0.37083 26 ft 9 kts 73°
2026-04-23 17:50 51.53824 0.37249 24 ft 8 kts 30°
2026-04-23 17:50 51.53854 0.37273 24 ft 2 kts 31°
2026-04-23 17:51 51.53855 0.37274 24 ft 0 kts 29°
2026-04-23 17:52 51.53881 0.37282 25 ft 7 kts 322°
2026-04-23 17:53 51.53871 0.37240 24 ft 0 kts 253°
2026-04-23 17:53 51.53868 0.37227 24 ft 11 kts 248°
2026-04-23 17:53 51.53775 0.36803 20 ft 68 kts 249°
2026-04-23 17:54 51.53619 0.35979 151 ft 82 kts 252°
2026-04-23 17:54 51.53455 0.35131 379 ft 78 kts 248°
2026-04-23 17:54 51.53167 0.33394 683 ft 83 kts 262°
2026-04-23 17:55 51.53336 0.31787 1026 ft 72 kts
2026-04-23 17:55 51.53557 0.32239 1247 ft 58 kts 99°
2026-04-23 17:55 51.53567 0.32850 1451 ft 58 kts 79°
2026-04-23 17:56 51.53674 0.33459 1648 ft 55 kts 57°
2026-04-23 17:56 51.54299 0.34336 2033 ft 60 kts 44°
2026-04-23 17:56 51.54657 0.34750 2129 ft 66 kts 44°
2026-04-23 17:57 51.55034 0.35182 2229 ft 69 kts 44°
2026-04-23 17:57 51.55445 0.35648 2261 ft 75 kts 44°
2026-04-23 17:57 51.56307 0.36688 2258 ft 80 kts 45°
2026-04-23 17:58 51.56734 0.37229 2336 ft 76 kts 45°
2026-04-23 17:58 51.57135 0.37781 2314 ft 76 kts 52°
2026-04-23 17:58 51.57520 0.38404 2249 ft 82 kts 47°
2026-04-23 17:58 51.57959 0.38985 2213 ft 82 kts 46°
2026-04-23 17:59 51.58409 0.39572 2143 ft 83 kts 46°
2026-04-23 17:59 51.58839 0.40147 2130 ft 80 kts 46°
2026-04-23 17:59 51.59264 0.40677 2130 ft 80 kts 45°
2026-04-23 17:59 51.59665 0.41173 2137 ft 79 kts 46°
2026-04-23 18:00 51.60083 0.41737 2161 ft 79 kts 45°
2026-04-23 18:00 51.60489 0.42350 2169 ft 81 kts 50°
2026-04-23 18:00 51.60902 0.42980 2160 ft 80 kts 50°
2026-04-23 18:00 51.61296 0.43601 2141 ft 80 kts 50°
2026-04-23 18:01 51.61683 0.44223 2152 ft 78 kts 49°
2026-04-23 18:01 51.62136 0.44750 2126 ft 82 kts 37°
2026-04-23 18:01 51.62610 0.45251 2115 ft 79 kts 39°
2026-04-23 18:01 51.63078 0.45711 2100 ft 81 kts 42°
2026-04-23 18:02 51.63368 0.46104 2110 ft 82 kts 48°
2026-04-23 18:02 51.63888 0.46986 2139 ft 78 kts 53°
2026-04-23 18:02 51.64258 0.47650 2133 ft 82 kts 52°
2026-04-23 18:02 51.64641 0.48354 2102 ft 84 kts 55°
2026-04-23 18:03 51.64924 0.49138 2089 ft 80 kts 70°
2026-04-23 18:03 51.65220 0.49901 2037 ft 84 kts 50°
2026-04-23 18:03 51.65688 0.50436 2070 ft 79 kts 30°
2026-04-23 18:03 51.66213 0.50681 2091 ft 81 kts 23°
2026-04-23 18:04 51.66748 0.50916 2113 ft 83 kts 24°
2026-04-23 18:04 51.67304 0.51192 2157 ft 82 kts 20°
2026-04-23 18:04 51.67882 0.50913 2185 ft 92 kts 341°
2026-04-23 18:04 51.68450 0.50414 2178 ft 97 kts 343°
2026-04-23 18:05 51.69068 0.49941 2131 ft 99 kts 345°
2026-04-23 18:05 51.69699 0.49519 2119 ft 95 kts 348°
2026-04-23 18:05 51.70299 0.49161 2174 ft 92 kts 351°
2026-04-23 18:05 51.70904 0.48844 2193 ft 92 kts 355°
2026-04-23 18:06 51.71513 0.48696 2209 ft 87 kts
2026-04-23 18:06 51.72118 0.48574 2219 ft 88 kts
2026-04-23 18:06 51.72740 0.48393 2175 ft 92 kts
2026-04-23 18:06 51.73353 0.48196 2234 ft 89 kts 360°
2026-04-23 18:07 51.73978 0.48040 2155 ft 92 kts
2026-04-23 18:07 51.74610 0.47923 2161 ft 90 kts
2026-04-23 18:07 51.75238 0.47744 2161 ft 90 kts 360°
2026-04-23 18:07 51.75850 0.47575 2140 ft 90 kts
2026-04-23 18:08 51.76269 0.47505 2153 ft 89 kts
2026-04-23 18:08 51.77085 0.47317 2155 ft 89 kts
2026-04-23 18:08 51.77701 0.47191 2165 ft 89 kts
2026-04-23 18:08 51.78324 0.47048 2135 ft 93 kts 356°
2026-04-23 18:09 51.78953 0.46811 2124 ft 91 kts 358°
2026-04-23 18:09 51.79581 0.46688 2103 ft 90 kts
2026-04-23 18:09 51.80162 0.46526 2122 ft 88 kts 356°
2026-04-23 18:09 51.80803 0.46306 2055 ft 92 kts
2026-04-23 18:10 51.81422 0.46294 2065 ft 88 kts
2026-04-23 18:10 51.82034 0.46176 1990 ft 93 kts 359°
2026-04-23 18:10 51.82656 0.46000 1984 ft 88 kts 359°
2026-04-23 18:10 51.83242 0.45889 1994 ft 82 kts
2026-04-23 18:11 51.83774 0.45837 2093 ft 75 kts
2026-04-23 18:11 51.84284 0.45767 2162 ft 73 kts
2026-04-23 18:11 51.84779 0.45692 2256 ft 71 kts
2026-04-23 18:11 51.85276 0.45566 2322 ft 72 kts
2026-04-23 18:12 51.85779 0.45474 2383 ft 73 kts
2026-04-23 18:12 51.86315 0.45388 2356 ft 82 kts
2026-04-23 18:12 51.86908 0.45312 2292 ft 89 kts
2026-04-23 18:12 51.87507 0.45275 2323 ft 83 kts
2026-04-23 18:13 51.88082 0.45218 2336 ft 84 kts
2026-04-23 18:13 51.88668 0.45137 2305 ft 88 kts 359°
2026-04-23 18:13 51.89261 0.45071 2354 ft 83 kts
2026-04-23 18:13 51.89843 0.45107 2343 ft 88 kts 10°
2026-04-23 18:14 51.90249 0.45102 2345 ft 88 kts
2026-04-23 18:14 51.91065 0.45039 2324 ft 91 kts
2026-04-23 18:14 51.91787 0.44999 1989 ft 106 kts
2026-04-23 18:14 51.92539 0.45020 1737 ft 109 kts
2026-04-23 18:15 51.93293 0.45123 1531 ft 105 kts 12°
2026-04-23 18:15 51.93996 0.45249 1459 ft 97 kts 11°
2026-04-23 18:15 51.94649 0.45195 1403 ft 94 kts
2026-04-23 18:15 51.95309 0.45044 1355 ft 92 kts 360°
2026-04-23 18:16 51.95889 0.44908 1437 ft 80 kts
2026-04-23 18:16 51.96426 0.44789 1495 ft 78 kts
2026-04-23 18:16 51.96973 0.44691 1535 ft 80 kts
2026-04-23 18:17 51.98087 0.44491 1634 ft 82 kts
2026-04-23 18:17 51.98722 0.44379 1483 ft 97 kts
2026-04-23 18:17 51.99376 0.44281 1464 ft 95 kts
2026-04-23 18:17 52.00019 0.44144 1507 ft 89 kts
2026-04-23 18:18 52.00641 0.44028 1497 ft 91 kts
2026-04-23 18:18 52.01064 0.43973 1485 ft 92 kts
2026-04-23 18:18 52.01707 0.43927 1457 ft 93 kts
2026-04-23 18:18 52.02337 0.43900 1478 ft 89 kts
2026-04-23 18:19 52.02934 0.43876 1548 ft 83 kts
2026-04-23 18:19 52.03741 0.43836 1493 ft 92 kts
2026-04-23 18:19 52.04180 0.43788 1488 ft 93 kts
2026-04-23 18:19 52.05034 0.43703 1444 ft 92 kts
2026-04-23 18:20 52.05464 0.43655 1463 ft 90 kts
2026-04-23 18:20 52.06101 0.43526 1452 ft 93 kts
2026-04-23 18:20 52.06743 0.43444 1442 ft 93 kts
2026-04-23 18:20 52.07389 0.43364 1425 ft 95 kts
2026-04-23 18:21 52.08014 0.43362 1470 ft 87 kts 12°
2026-04-23 18:21 52.08575 0.43057 1571 ft 90 kts 333°
2026-04-23 18:21 52.09022 0.42296 1618 ft 96 kts 308°
2026-04-23 18:21 52.09209 0.41226 1687 ft 98 kts 283°
2026-04-23 18:22 52.09306 0.40102 1679 ft 105 kts 283°
2026-04-23 18:22 52.09363 0.38934 1720 ft 104 kts 269°
2026-04-23 18:22 52.09328 0.37764 1694 ft 107 kts 269°
2026-04-23 18:22 52.09305 0.36531 1698 ft 107 kts 273°
2026-04-23 18:23 52.09322 0.35341 1708 ft 106 kts 274°
2026-04-23 18:23 52.09367 0.32955 1735 ft 102 kts 278°
2026-04-23 18:24 52.09582 0.30627 1795 ft 101 kts 285°
2026-04-23 18:24 52.09732 0.29495 1758 ft 106 kts 286°
2026-04-23 18:24 52.09876 0.28272 1726 ft 110 kts 277°
2026-04-23 18:25 52.09718 0.25863 1802 ft 106 kts 266°
2026-04-23 18:25 52.09772 0.24690 1830 ft 104 kts 288°
2026-04-23 18:25 52.09993 0.23573 1821 ft 103 kts 294°
2026-04-23 18:25 52.10229 0.22471 1831 ft 104 kts 296°
2026-04-23 18:26 52.10502 0.21401 1849 ft 103 kts 300°
2026-04-23 18:26 52.10776 0.20324 1822 ft 105 kts 298°
2026-04-23 18:26 52.11027 0.19151 1671 ft 114 kts 292°
2026-04-23 18:26 52.11260 0.17899 1540 ft 116 kts 288°
2026-04-23 18:27 52.11331 0.16611 1398 ft 119 kts 271°
2026-04-23 18:27 52.11238 0.15257 1319 ft 117 kts 259°
2026-04-23 18:27 52.10943 0.14051 1299 ft 114 kts 235°
2026-04-23 18:27 52.10411 0.13146 1213 ft 107 kts 217°
2026-04-23 18:28 52.09896 0.12313 1133 ft 94 kts 224°
2026-04-23 18:28 52.09519 0.11565 1040 ft 83 kts 230°
2026-04-23 18:28 52.09193 0.10823 901 ft 80 kts 234°
2026-04-23 18:28 52.08884 0.10053 754 ft 82 kts 231°
2026-04-23 18:29 52.08608 0.09238 611 ft 85 kts 245°
2026-04-23 18:29 52.08379 0.08404 463 ft 78 kts 241°
2026-04-23 18:29 52.08148 0.07606 318 ft 79 kts 246°
2026-04-23 18:29 52.07925 0.06791 184 ft 78 kts 244°
2026-04-23 18:30 52.07720 0.06076 128 ft 58 kts 238°
2026-04-23 18:30 52.07648 0.05795 126 ft 8 kts 307°
2026-04-23 18:30 52.07681 0.05824 128 ft 5 kts 61°
2026-04-23 18:30 52.07704 0.05844 129 ft 4 kts 350°
2026-04-23 18:31 52.07723 0.05838 129 ft 8 kts 358°
2026-04-23 18:31 52.07813 0.05817 129 ft 14 kts 347°
2026-04-23 18:31 52.07915 0.05792 129 ft 14 kts 349°
2026-04-23 18:31 52.07998 0.05764 126 ft 10 kts 348°
2026-04-23 18:32 52.08062 0.05740 127 ft 10 kts 349°
2026-04-23 18:32 52.08136 0.05737 129 ft 10 kts 13°
2026-04-23 18:32 52.08199 0.05777 127 ft 8 kts 29°
2026-04-23 18:32 52.08235 0.05809 127 ft 4 kts 29°
2026-04-23 18:33 52.08244 0.05815 129 ft 0 kts 344°